Waarnemingen

Advertentie
Mijn weer
A12-CPP, Nederland (6205): temperatuur & dauwpunt: 17.01.2018 07:00:00 - 23.01.2018 07:00:00 (CET)A12-CPP, Nederland (6205): windsnelheid & windstoten: 17.01.2018 07:00:00 - 23.01.2018 07:00:00 (CET)A12-CPP, Nederland (6205): windrichting: 17.01.2018 07:00:00 - 23.01.2018 07:00:00 (CET)A12-CPP, Nederland (6205): luchtdruk: 17.01.2018 07:00:00 - 23.01.2018 07:00:00 (CET)A12-CPP, Nederland (6205): zicht: 17.01.2018 07:00:00 - 23.01.2018 07:00:00 (CET)
Datum & Tijd tt [°C] td [°C] ff [km/u] ff [kn] fx [km/u] fx [kn] dd ppp [hPa] vv [km]
23.01.2018 07:00:00 6,9 5,1 28 15 - - ZZW 1012,3 12
23.01.2018 06:00:00 6,9 5,3 25 14 32 18 ZZW 1012,8 11
23.01.2018 05:00:00 6,9 5,5 25 14 29 16 ZW 1013,0 11
23.01.2018 04:00:00 7,0 5,6 25 14 29 16 ZW 1012,8 10
23.01.2018 03:00:00 7,2 5,6 22 12 29 16 WZW 1012,7 11
23.01.2018 02:00:00 7,2 5,6 25 14 29 16 ZW 1012,5 11
23.01.2018 01:00:00 7,2 5,7 25 14 29 16 WZW 1012,0 11
23.01.2018 00:00:00 7,3 5,7 25 14 32 18 WZW 1011,6 12
22.01.2018 23:00:00 7,4 5,7 25 14 29 16 W 1011,1 11
22.01.2018 22:00:00 7,4 5,5 25 14 - - W 1010,5 12
22.01.2018 21:00:00 7,3 5,6 25 14 36 19 W 1009,5 11
22.01.2018 20:00:00 7,3 5,5 25 14 29 16 W 1008,7 10
22.01.2018 19:00:00 7,3 5,3 25 14 32 18 W 1007,9 11
22.01.2018 18:00:00 7,2 5,4 28 15 32 18 W 1007,2 10
22.01.2018 17:00:00 7,4 5,1 29 16 32 18 WNW 1005,9 12
22.01.2018 16:00:00 7,3 4,7 29 16 32 18 W 1005,7 13
22.01.2018 15:00:00 7,2 5,2 22 12 29 16 WNW 1004,1 12
22.01.2018 14:00:00 7,2 5,1 25 14 29 16 W 1003,6 12
22.01.2018 13:00:00 7,1 5,0 22 12 25 14 W 1003,0 12
22.01.2018 12:00:00 7,0 4,8 22 12 29 16 W 1002,9 15
22.01.2018 11:00:00 7,2 5,1 25 14 32 18 W 1002,2 13
22.01.2018 10:00:00 6,8 5,1 25 14 29 16 W 1001,3 14
22.01.2018 09:00:00 6,6 5,6 21 11 25 14 NW 1001,0 10
22.01.2018 08:00:00 6,6 5,6 22 12 22 12 WZW 1000,7 14
22.01.2018 07:00:00 5,9 5,3 14 8 40 21 WZW 1000,1 6
22.01.2018 06:00:00 5,0 4,5 40 21 50 27 ZZO 999,9 5
22.01.2018 05:00:00 4,4 3,6 40 21 54 29 ZZO 1000,2 6
22.01.2018 04:00:00 4,2 3,1 50 27 58 31 ZZO 1000,5 6
22.01.2018 03:00:00 3,4 1,9 50 27 61 33 ZZO 1001,9 2,4
22.01.2018 02:00:00 3,8 2,0 52 28 61 33 ZZO 1002,6 5
22.01.2018 01:00:00 3,4 1,5 54 29 65 35 ZZO 1003,5 1,7
22.01.2018 00:00:00 4,4 0,7 43 23 58 31 ZZO 1004,6 11
21.01.2018 23:00:00 4,0 0,8 43 23 58 31 Z 1005,1 6
21.01.2018 22:00:00 5,2 0,5 36 19 50 27 ZZO 1006,6 24
21.01.2018 21:00:00 5,1 0,9 36 19 43 23 ZZO 1007,8 43
21.01.2018 20:00:00 4,4 0,8 32 18 43 23 ZZO 1008,8 9
21.01.2018 19:00:00 5,1 0,2 29 16 36 19 Z 1009,7 50
21.01.2018 18:00:00 5,2 0,4 29 16 32 18 ZZO 1010,8 50
21.01.2018 17:00:00 5,2 0,4 22 12 29 16 Z 1011,4 45
21.01.2018 16:00:00 5,2 -0,2 21 11 - - Z 1011,5 10
21.01.2018 15:00:00 5,2 -0,1 18 10 18 10 Z 1012,3 50
21.01.2018 14:00:00 5,4 0,1 11 6 14 8 ZZO 1012,6 50
21.01.2018 13:00:00 5,2 0,4 11 6 - - Z 1013,1 45
21.01.2018 12:00:00 5,3 0,1 5 3 11 6 ZZO 1012,9 10
21.01.2018 11:00:00 5,7 0,0 5 3 7 4 ZO 1012,8 10
21.01.2018 10:00:00 5,0 0,4 4 2 11 6 OZO 1012,3 50
21.01.2018 09:00:00 5,2 -1,1 7 4 14 8 N 1011,7 50
21.01.2018 08:00:00 5,3 -0,8 14 8 22 12 N 1011,1 50
21.01.2018 07:00:00 5,3 -1,2 18 10 25 14 N 1010,4 50
21.01.2018 06:00:00 5,3 -1,4 22 12 29 16 N 1009,5 50
21.01.2018 05:00:00 5,3 -0,8 28 15 32 18 N 1008,6 10
21.01.2018 04:00:00 5,3 -0,8 25 14 - - N 1007,9 50
21.01.2018 03:00:00 5,3 -0,8 25 14 32 18 N 1007,3 50
21.01.2018 02:00:00 5,1 0,0 29 16 43 23 N 1006,1 47
21.01.2018 01:00:00 5,1 -0,6 36 19 47 25 N 1004,9 49
21.01.2018 00:00:00 5,0 -0,1 40 21 47 25 N 1003,3 46
20.01.2018 23:00:00 4,3 0,5 40 21 50 27 N 1002,4 46
20.01.2018 22:00:00 2,2 0,1 43 23 61 33 N 1001,4 13
20.01.2018 21:00:00 3,6 0,5 41 22 40 21 N 1000,3 10
20.01.2018 20:00:00 3,2 1,1 18 10 25 14 NNW 999,5 48
20.01.2018 19:00:00 2,9 0,3 22 12 36 19 NNW 998,7 20
20.01.2018 18:00:00 3,6 0,7 11 6 22 12 NNW 998,0 37
20.01.2018 17:00:00 3,2 1,0 25 14 36 19 WZW 997,6 26
20.01.2018 16:00:00 4,8 0,2 22 12 32 18 NW 996,8 49
20.01.2018 15:00:00 3,7 1,2 18 10 25 14 Z 996,7 47
20.01.2018 14:00:00 2,7 1,0 18 10 43 23 Z 997,2 48
20.01.2018 13:00:00 4,2 1,4 22 12 29 16 ZZW 997,4 40
20.01.2018 12:00:00 4,0 1,2 24 13 29 16 ZZW 997,7 10
20.01.2018 11:00:00 2,7 1,2 18 10 22 12 ZZO 998,5 48
20.01.2018 10:00:00 1,5 0,4 11 6 54 29 ZO 998,8 4,5
20.01.2018 09:00:00 4,8 -1,8 32 18 36 19 ZW 998,2 50
20.01.2018 08:00:00 4,2 1,0 11 6 18 10 Z 998,4 49
20.01.2018 07:00:00 3,7 0,7 7 4 22 12 W 998,5 50
20.01.2018 06:00:00 3,8 1,0 11 6 14 8 WZW 998,9 10
20.01.2018 05:00:00 2,9 1,6 4 2 14 8 W 999,1 50
20.01.2018 04:00:00 2,7 1,2 21 11 22 12 NNW 999,5 10
20.01.2018 03:00:00 1,9 0,7 22 12 36 19 W 1000,0 2,8
20.01.2018 02:00:00 3,9 -0,1 29 16 47 25 ZW 999,7 42
20.01.2018 01:00:00 3,7 0,6 40 21 50 27 ZW 1000,0 31
20.01.2018 00:00:00 4,1 1,2 34 18 40 21 ZZW 1000,2 10
19.01.2018 23:00:00 3,7 0,9 29 16 43 23 ZZW 1000,5 44
19.01.2018 22:00:00 3,7 0,4 40 21 47 25 W 1000,8 40
19.01.2018 21:00:00 4,8 -0,2 22 12 43 23 ZW 1000,4 47
19.01.2018 20:00:00 5,0 0,3 37 20 40 21 ZW 1000,4 10
19.01.2018 19:00:00 5,2 0,7 36 19 43 23 WZW 1000,5 27
19.01.2018 18:00:00 5,0 0,6 35 19 47 25 W 1000,6 10
19.01.2018 17:00:00 5,0 -0,5 36 19 43 23 W 1000,5 29
19.01.2018 16:00:00 4,3 1,0 32 18 50 27 WNW 1000,6 25
19.01.2018 15:00:00 4,3 0,3 29 16 50 27 ZW 1000,5 42
19.01.2018 14:00:00 4,7 0,2 22 12 50 27 WZW 1000,5 48
19.01.2018 13:00:00 5,5 0,5 32 18 40 21 WZW 1000,6 31
19.01.2018 12:00:00 5,5 -0,1 29 16 36 19 WZW 1000,9 39
19.01.2018 11:00:00 5,4 0,2 34 18 40 21 W 1000,7 10
19.01.2018 10:00:00 5,4 0,9 39 21 40 21 WZW 1000,4 10
19.01.2018 09:00:00 5,7 -0,4 35 19 36 19 W 1000,1 10
19.01.2018 08:00:00 5,3 1,0 11 6 32 18 NW 999,6 10
19.01.2018 07:00:00 4,0 1,7 4 2 14 8 - 999,5 10
19.01.2018 06:00:00 4,3 1,3 15 8 29 16 W 999,4 10
19.01.2018 05:00:00 3,8 1,1 21 11 36 19 WZW 999,0 10
19.01.2018 04:00:00 4,3 1,4 35 19 36 19 WZW 998,9 10
19.01.2018 03:00:00 4,4 0,9 35 19 36 19 WZW 998,3 10
19.01.2018 02:00:00 5,1 1,8 29 16 40 21 WZW 998,2 10
19.01.2018 01:00:00 5,3 1,0 28 15 - - W 997,9 10
19.01.2018 00:00:00 5,7 1,1 28 15 32 18 W 997,7 10
18.01.2018 23:00:00 4,8 1,2 31 17 32 18 W 997,4 10
18.01.2018 22:00:00 5,2 0,8 34 18 32 18 WZW 997,3 10
18.01.2018 21:00:00 4,7 0,9 28 15 32 18 W 996,8 10
18.01.2018 20:00:00 5,6 0,5 26 14 47 25 NW 996,2 10
18.01.2018 19:00:00 4,8 0,0 29 16 40 21 WNW 995,8 9
18.01.2018 18:00:00 5,1 1,3 21 11 36 19 NW 995,4 10
18.01.2018 17:00:00 4,6 -0,7 31 17 50 27 NW 994,7 10
18.01.2018 16:00:00 5,2 0,8 26 14 36 19 N 994,0 10
18.01.2018 15:00:00 4,5 0,8 28 15 36 19 NNW 993,3 10
18.01.2018 14:00:00 5,5 0,4 35 19 36 19 NNW 992,2 10
18.01.2018 13:00:00 4,8 0,3 39 21 40 21 N 991,5 10
18.01.2018 12:00:00 5,5 1,0 35 19 40 21 N 990,3 10
18.01.2018 11:00:00 4,9 1,9 31 17 32 18 NNW 988,7 10
18.01.2018 10:00:00 4,0 1,4 26 14 32 18 N 987,3 10
18.01.2018 09:00:00 3,5 1,4 - - - - - 986,1 -
18.01.2018 08:00:00 4,2 0,8 13 7 25 14 - 985,0 10
18.01.2018 07:00:00 3,6 1,3 4 2 14 8 WZW 984,9 10
18.01.2018 06:00:00 4,3 -0,8 9 5 32 18 - 985,7 10
18.01.2018 05:00:00 4,1 0,8 37 20 36 19 ZZW 987,2 10
18.01.2018 04:00:00 4,9 1,0 11 6 32 18 ZW 988,7 10
18.01.2018 03:00:00 4,6 -0,2 50 27 47 25 ZW 990,5 10
18.01.2018 02:00:00 4,8 0,3 52 28 50 27 W 991,8 8
18.01.2018 01:00:00 5,7 0,2 41 22 47 25 WZW 992,8 10
18.01.2018 00:00:00 5,3 1,0 42 23 54 29 W 993,6 10
17.01.2018 23:00:00 5,8 0,5 50 27 58 31 W 994,1 10
17.01.2018 22:00:00 5,8 1,0 57 31 58 31 W 994,4 10
17.01.2018 21:00:00 5,9 0,4 57 31 54 29 W 994,6 10
17.01.2018 20:00:00 6,0 1,1 54 29 58 31 W 994,6 10
17.01.2018 19:00:00 5,9 1,8 55 30 61 33 W 994,7 10
17.01.2018 18:00:00 6,2 0,4 54 29 68 37 W 994,3 10
17.01.2018 17:00:00 5,2 1,0 63 34 65 35 W 994,1 10
17.01.2018 16:00:00 6,1 -0,6 54 29 68 37 WNW 993,0 10
17.01.2018 15:00:00 5,8 -0,8 63 34 65 35 NW 992,4 10
17.01.2018 14:00:00 3,5 0,6 42 23 58 31 NNW 992,1 10
17.01.2018 13:00:00 3,8 0,7 39 21 72 39 W 991,4 6
17.01.2018 12:00:00 5,4 -1,5 34 18 47 25 NW 990,6 10
17.01.2018 11:00:00 4,8 -1,4 24 13 50 27 NW 989,6 10
17.01.2018 10:00:00 3,7 -1,6 50 27 54 29 NNW 988,8 10
17.01.2018 09:00:00 4,8 -1,8 29 16 50 27 NW 987,5 10
17.01.2018 08:00:00 4,6 0,2 41 22 61 33 NNW 986,9 10
17.01.2018 07:00:00 4,2 -2,1 57 31 58 31 NW 986,0 10

tt = temperatuur
td = dauwpunt
ff = windsnelheid
fx = windstoten
dd = windrichting
ppp = luchtdruk
vv = zicht

Weerstations in de omgeving